Regional Weather Roundup
Issued by NWS

Home | Current Version | Previous Version | Text Only | Print | Product List | Glossary On
Versions: 1 2 3 4 5 6 7 8 9 10 11 12 13 14 15 16 17 18 19 20 21 22 23 24 25 26 27 28 29 30 31 32 33 34 35 36 37 38 39 40 41 42 43 44 45 46 47 48 49 50
843
ASUS43 KLSX 231059
RWRMO

WEATHER SUMMARY FOR MISSOURI
NATIONAL WEATHER SERVICE SPRINGFIELD MO
600 AM CDT FRI JUN 23 2017

NOTE: "FAIR" INDICATES FEW OR NO CLOUDS BELOW 12,000 FEET WITH NO
       SIGNIFICANT WEATHER AND/OR OBSTRUCTIONS TO VISIBILITY.
       CURRENT SKY AND/OR WEATHER CONDITIONS ARE NOT AVAILABLE FOR
       CHILLICOTHE AND FARMINGTON.

MOZ001>031-035>038-043-044-053-054-231200-
...NORTHERN AND WESTERN MISSOURI...

CITY           SKY/WX    TMP DP  RH WIND       PRES   REMARKS
KANSAS CTY INT MOCLDY    72  66  81 NE16      29.75S
KANSAS C DTWN  MOCLDY    75  67  76 NE15G24   29.72R
LEE`S SUMMIT   CLOUDY    77  73  87 N13       29.73R
ST JOSEPH      CLOUDY    71  64  78 N13       29.77R
CHILLICOTHE      N/A     72  70  93 N12G18    29.74R
KIRKSVILLE     LGT RAIN  68  67  96 CALM      29.76R

$$
MOZ066>068-077>081-088>096-101>105-231200-
...SOUTHWEST MISSOURI...

CITY           SKY/WX    TMP DP  RH WIND       PRES   REMARKS
SPRINGFIELD    PTCLDY    70  70 100 SE3       29.70S
JOPLIN         CLEAR     73  72  96 S6        29.71R
BRANSON        CLOUDY    72  72 100 CALM      29.72R

$$
MOZ032>034-039>042-045>050-055>058-069>072-231200-
...CENTRAL MISSOURI...

CITY           SKY/WX    TMP DP  RH WIND       PRES   REMARKS
COLUMBIA       PTCLDY    73  72  96 CALM      29.72S
JEFFERSON CITY CLEAR     76  72  87 CALM      29.71R
ROLLA          CLOUDY    70  70 100 W3        29.72R
SEDALIA        PTCLDY    73  73 100 CALM      29.71S
WARRENSBURG    MOCLDY    72  70  94 CALM      29.69F
OSAGE BEACH    CLEAR     70  69  97 CALM      29.72S

$$
MOZ051-052-059>065-231200-
...EAST CENTRAL MISSOURI...

CITY           SKY/WX    TMP DP  RH WIND       PRES   REMARKS
ST LOUIS INTL  CLOUDY    78  72  81 SW7       29.68F
SPIRIT OF STL  CLOUDY    75  74  96 CALM      29.68F
ST CHARLES     CLOUDY    76  74  93 CALM      29.68S

$$
MOZ072>076-082>087-097>100-106>115-231200-
...SOUTH CENTRAL AND SOUTHEAST MISSOURI...

CITY           SKY/WX    TMP DP  RH WIND       PRES   REMARKS
CAPE GIRARDEAU CLOUDY    76  73  91 S8        29.69F
FARMINGTON     CLOUDY    74  73  97 CALM      29.71F
POPLAR BLUFF   LGT RAIN  75  75 100 SE6       29.69S
WEST PLAINS    CLOUDY    74  73  97 N6        29.73R

$$




USA.gov is the U.S. government's official web portal to all federal, state and local government web resources and services.